Location: ?????????
(38.0736°N, 23.2119°E)
Time: 19:13:36
(UTC+00:00)

Ariane Rocket - Pass Details

Date: 18 April 2024
Orbit: 758 x 766 km, 98.5° (Epoch: 26 May)

Event Time Altitude Azimuth Distance (km) Brightness Sun altitude
Exits shadow 19:16:54 35° 60° (ENE) 1,205 3.8 -23.8°
Drops below altitude 10° 19:21:05 10° 5° (N) 2,295 5.9 -24.4°
Sets 19:23:32 0° 357° (N) 3,224 6.8 -24.8°
